Regional Weather Roundup
Issued by NWS

Home | Current Version | Previous Version | Text Only | Print | Product List | Glossary On
Versions: 1 2 3 4 5 6 7 8 9 10 11 12 13 14 15 16 17 18 19 20 21 22 23 24 25 26 27 28 29 30 31 32 33 34 35 36 37 38 39 40 41 42 43 44 45 46 47 48 49 50
000
ASUS43 KOAX 230210
RWRNE

WEATHER ROUNDUP FOR NEBRASKA
NATIONAL WEATHER SERVICE OMAHA NE
900 PM CDT MON SEP 22 2014

NOTES: SATELLITE DATA IS BEING USED TO AUGMENT CLOUD COVER ABOVE
       12000 FEET.
       "FAIR" INDICATES FEW OR NO CLOUDS BELOW 12,000 FEET WITH NO
       SIGNIFICANT WEATHER AND/OR OBSTRUCTIONS TO VISIBILITY.

  * THESE STATIONS DO NOT REPORT WEATHER SUCH AS RAIN...SNOW OR FOG.

NEZ001>004-019>022-054>056-230300-
NEBRASKA PANHANDLE

CITY           SKY/WX    TMP DP  RH WIND       PRES   REMARKS
SCOTTSBLUFF    MOCLDY    62  59  90 SE8       30.05S
ALLIANCE       PTCLDY    60  54  80 SE15      30.04F
CHADRON        CLOUDY    67  54  63 S14       30.00R
KIMBALL        TSTM      63  52  67 CALM      30.10R
SIDNEY         PTCLDY    62  54  74 SE8       30.07S
$$

NEZ057>060-069>072-079>082-230300-
SOUTHWEST NEBRASKA

CITY           SKY/WX    TMP DP  RH WIND       PRES   REMARKS
NORTH PLATTE   LGT RAIN  58  55  90 SE16      30.08F
IMPERIAL       CLOUDY    65  52  62 SE20      30.06F
LEXINGTON      CLOUDY    62  55  78 SE9       30.15R
MCCOOK         LGT RAIN  64  53  67 E8        30.10S
OGALLALA       CLOUDY    65  53  66 SE6       30.05F
$$

NEZ005>010-023>029-035>040-094-230300-
NORTH CENTRAL NEBRASKA

CITY           SKY/WX    TMP DP  RH WIND       PRES   REMARKS
VALENTINE      LGT RAIN  60  56  86 S12       30.06S
AINSWORTH      LGT RAIN  58  55  89 S13       30.10S
BROKEN BOW     LGT RAIN  59  56  89 SE10      30.15S
O`NEILL        CLOUDY    67  52  57 S8        30.13R
ORD            LGT RAIN  60  56  86 SE3       30.13S
THEDFORD       CLOUDY    60  55  83 SE15G21   30.09S
$$

NEZ041-046>049-061>064-073>077-083>087-230300-
SOUTH CENTRAL NEBRASKA

CITY           SKY/WX    TMP DP  RH WIND       PRES   REMARKS
GRAND ISLAND   CLOUDY    66  49  54 SE9       30.16F
AURORA         CLOUDY    64  48  56 S7        30.17F
HASTINGS       CLOUDY    65  47  52 SE9       30.16S
HEBRON         MOCLDY    59  50  72 SE5       30.18R
HOLDREGE       CLOUDY    64  50  58 CALM      30.15R
KEARNEY *      CLOUDY    64  48  55 E8        30.15F
YORK           CLOUDY    63  52  67 S5        30.19R
$$

NEZ011>018-030>034-042>045-230300-
NORTHEAST NEBRASKA

CITY           SKY/WX    TMP DP  RH WIND       PRES   REMARKS
NORFOLK        CLOUDY    64  51  62 SE7       30.16R
ALBION         CLOUDY    64  51  64 S7        30.15S
BLAIR          MOCLDY    62  52  69 SE7       30.18S
COLUMBUS *     CLOUDY    63  50  63 S6        30.18R
FREMONT        MOCLDY    65  51  59 SE6       30.18R
TEKAMAH        MOCLDY    57  52  83 S5        30.17S
WAYNE          MOCLDY    58  53  82 S8        30.17R
$$

NEZ050>053-065>068-078-088>093-230300-
SOUTHEAST NEBRASKA

CITY           SKY/WX    TMP DP  RH WIND       PRES   REMARKS
LINCOLN        MOCLDY    64  50  60 S7        30.19R
OMAHA EPPLEY   MOCLDY    63  51  65 S6        30.19R
BEATRICE       MOCLDY    64  49  57 SE6       30.18S
FALLS CITY     MOCLDY    63  52  67 S6        30.20R
NEBRASKA CITY    N/A     60  46  59 S5        30.20R
PLATTSMOUTH    PTCLDY    61  49  64 SE6       30.19S
$$

NEZ044-045-051>053-067-230300-
OMAHA AREA

CITY           SKY/WX    TMP DP  RH WIND       PRES   REMARKS
OMAHA EPPLEY   MOCLDY    63  51  65 S6        30.19R
BLAIR          MOCLDY    62  52  69 SE7       30.18S
FREMONT        MOCLDY    65  51  59 SE6       30.18R
MILLARD        PTCLDY    63  52  67 SE3       30.18S
OFFUTT AFB     PTCLDY    62  56  81 E5        30.19R
PLATTSMOUTH    PTCLDY    61  49  64 SE6       30.19S
WAHOO          FAIR      60  51  73 S3        30.18R
$$


USA.gov is the U.S. government's official web portal to all federal, state and local government web resources and services.